Home   Weather   Ottawa   Past weeks
Flag for Canada

Past Weather in Ottawa, Ontario, Canada — Yesterday and Last 2 Weeks

Now
75 °F

Partly sunny.


Feels Like: 77 °F
Forecast: N/A
Wind: 10 mph from North

Location: Ottawa Int'L. Ont.

Current Time: Jul 23, 2019 at 6:47:42 pm

Latest Report: Jul 23, 2019 at 6:00 pm


Visibility: 15 mi

Pressure: 29.89 "Hg

Humidity: 39%

Dew Point: 48 °F

Location of OttawaLocation

Past Weather in Ottawa — Graph

°F

Ottawa Temperature Yesterday

Maximum temperature yesterday: 73 °F (at 3:00 pm)
Minimum temperature yesterday: 61 °F (at 4:00 am)
Average temperature yesterday: 67 °F

High & Low Weather Summary for the Past Weeks

 TemperatureHumidityPressure
High93 °F (Jul 20, 2:00 pm)100% (Jul 11, 6:35 pm)30.09 "Hg (Jul 11, 6:35 pm)
Low54 °F (Jul 15, 6:00 am)31% (Jul 9, 1:00 pm)29.64 "Hg (Jul 20, 5:03 pm)
Average72 °F71%29.87 "Hg
* Reported Jul 8 5:00 pm — Jul 23 5:00 pm, Ottawa. Weather by CustomWeather, © 2019

Note: Actual official high and low records may vary slightly from our data, if they occured in-between our weather recording intervals... More about our weather records

Advertising

Ottawa Weather History for the Previous 24 Hours

Scroll right to see more
 ConditionsComfort  
Time TempWeatherWind HumidityBarometerVisibility
5:00 pm
Tue, Jul 23
75 °FPartly sunny.14 mph44%29.87 "Hg15 mi
4:00 pm77 °FPartly sunny.14 mph39%29.87 "Hg15 mi
3:00 pm79 °FBroken clouds.16 mph39%29.87 "Hg15 mi
2:00 pm77 °FBroken clouds.13 mph42%29.87 "Hg15 mi
1:00 pm77 °FScattered clouds.14 mph42%29.87 "Hg15 mi
12:00 pm75 °FScattered clouds.10 mph47%29.87 "Hg15 mi
11:00 am73 °FScattered clouds.8 mph53%29.88 "Hg15 mi
10:00 am70 °FScattered clouds.6 mph69%29.88 "Hg15 mi
9:00 am70 °FScattered clouds.5 mph60%29.87 "Hg15 mi
8:00 am64 °FPassing clouds.5 mph88%29.87 "Hg15 mi
7:00 am59 °FPassing clouds.2 mph94%29.87 "Hg15 mi
6:00 am55 °FPassing clouds.3 mph94%29.86 "Hg15 mi
5:00 am54 °FPassing clouds.5 mph94%29.85 "Hg15 mi
4:00 am55 °FPassing clouds.3 mph94%29.85 "Hg15 mi
3:00 am55 °FPassing clouds.No wind100%29.86 "Hg15 mi
2:00 am57 °FPassing clouds.3 mph94%29.86 "Hg15 mi
1:00 am57 °FPassing clouds.2 mph94%29.86 "Hg15 mi
12:00 am63 °FPassing clouds.2 mph77%29.88 "Hg15 mi
11:00 pm
Mon, Jul 22
63 °FPassing clouds.3 mph77%29.88 "Hg15 mi
10:00 pm64 °FPartly cloudy.3 mph73%29.88 "Hg15 mi
9:00 pm66 °FPartly cloudy.5 mph68%29.88 "Hg15 mi
8:00 pm68 °FBroken clouds.5 mph64%29.86 "Hg15 mi
7:00 pm72 °FPartly sunny.5 mph57%29.86 "Hg15 mi
6:00 pm73 °FBroken clouds.2 mph50%29.86 "Hg15 mi
Weather by CustomWeather, © 2019

See weather overview